Weather in Fatyanovo

Russia / Yaroslavl Oblast     57°01′43″N   38°54′51″E
temp.,
°C
wind,
m/s
gust,
m/s
humid.,
%
clouds,
%
prec.,
mm/h
press.,
hPa
HPBL,
m
16 june, wed
wed1600:00+16wnw119064 0.4 100911
03:00+15wnw23966 0.6 101048
06:00+15nnw310927 0.0 1010321
09:00+20nnw4668100 0.0 1011838
12:00+21n465614 0.8 10121665
15:00+22nnw56355 0.8 10132096
18:00+21nw46450 0.0 10141889
21:00+14wnw22760 0.0 101616
17 june, thu
thu1700:00+12nw277338 0.0 1018125
03:00+10nw25700 0.0 102072
06:00+13nnw29655 0.0 1022293
09:00+18nnw35396 0.0 1023815
12:00+21nw36355 0.0 10231961
15:00+22nw57395 0.0 10232194
18:00+22nnw37495 0.0 10241690
21:00+16wsw22745 0.0 102519
18 june, fri
fri1800:00+13w22760 0.0 102626
03:00+12sw22835 0.0 102716
06:00+15wsw12766 0.0 102785
09:00+22wsw235252 0.0 1027633
12:00+25w23415 0.0 10261723
15:00+26w34405 0.0 10251919
18:00+25wsw35515 0.0 10241242
21:00+19sw367999 0.0 1025114
19 june, sat
sat1900:00+16wsw388222 0.0 1026141
03:00+15wsw310895 0.0 1026195
06:00+18wsw310793 0.0 1026280
09:00+23wsw46595 0.0 1026599
12:00+27wsw45475 0.0 10251520
15:00+28wsw45430 0.0 10241951
18:00+26sw35540 0.0 10231086
21:00+20sw36781 0.0 1024116
20 june, sun
sun2000:00+17sw25885 0.0 102479
03:00+16wsw26936 0.0 1025114
06:00+18wsw278111 0.0 1025191
09:00+24wsw355686 0.0 1025668
12:00+27sw34425 0.0 10241452
15:00+28wsw35390 0.0 10231819
18:00+26wsw35490 0.0 10221062
21:00+20ssw23790 0.0 102253